Le nostre stazioni meteo in Italia

Pubblicità
Il mio iltempo24.it
Kinbrace, Gran Bretagna (99016): Temperatura & dewpoint: 16.10.2018 08:00:00 - 22.10.2018 08:00:00 (BST)Kinbrace, Gran Bretagna (99016): velocità del vento & gusts: 16.10.2018 08:00:00 - 22.10.2018 08:00:00 (BST)Kinbrace, Gran Bretagna (99016): direzione del vento: 16.10.2018 08:00:00 - 22.10.2018 08:00:00 (BST)Kinbrace, Gran Bretagna (99016): precipitazioni: 16.10.2018 08:00:00 - 22.10.2018 08:00:00 (BST)
Data & Tempo tt [°C] td [°C] ff [km/h] ff [kn] fx [km/h] fx [kn] dd rr [mm]
22.10.2018 08:00:00 - - - - - - - -
22.10.2018 07:00:00 5,9 3,5 16 9 - - O 0,0
22.10.2018 06:00:00 6,0 3,0 26 14 - - ONO 0,0
22.10.2018 05:00:00 6,1 3,7 26 14 - - ONO 0,0
22.10.2018 04:00:00 5,2 3,3 24 13 46 25 ONO 0,4
22.10.2018 03:00:00 5,3 3,0 18 10 - - ONO 0,0
22.10.2018 02:00:00 4,4 3,0 26 14 - - ONO 0,4
22.10.2018 01:00:00 4,1 2,1 18 10 68 37 ONO 0,4
22.10.2018 00:00:00 5,0 1,9 29 16 57 31 ONO 0,4
21.10.2018 23:00:00 5,9 0,0 31 17 65 35 ONO 0,0
21.10.2018 22:00:00 6,2 0,9 26 14 50 27 ONO 0,0
21.10.2018 21:00:00 6,1 0,6 28 15 - - ONO 0,0
21.10.2018 20:00:00 4,9 1,9 11 6 - - ONO 0,0
21.10.2018 19:00:00 5,7 2,3 26 14 61 33 ONO 0,2
21.10.2018 18:00:00 6,7 3,5 22 12 50 27 O 0,2
21.10.2018 17:00:00 7,8 3,9 24 13 48 26 ONO 0,0
21.10.2018 16:00:00 10,0 2,9 28 15 46 25 O 0,0
21.10.2018 15:00:00 10,0 4,9 29 16 48 26 NO 0,0
21.10.2018 14:00:00 9,9 6,7 21 11 - - ONO 0,2
21.10.2018 13:00:00 10,4 8,3 21 11 - - O 0,2
21.10.2018 12:00:00 8,4 6,2 13 7 - - SSO 0,0
21.10.2018 11:00:00 8,8 5,4 16 9 - - SO 0,0
21.10.2018 10:00:00 8,4 6,0 13 7 - - SSO 0,0
21.10.2018 09:00:00 8,1 6,1 16 9 - - OSO 0,0
21.10.2018 08:00:00 7,7 4,8 13 7 - - SO 0,0
21.10.2018 07:00:00 8,2 4,5 8 4 - - SSO 0,0
21.10.2018 06:00:00 9,0 8,3 18 10 - - NO 0,2
21.10.2018 05:00:00 10,0 8,9 21 11 - - NO 0,0
21.10.2018 04:00:00 10,9 10,4 8 4 - - N 0,2
21.10.2018 03:00:00 12,9 11,5 11 6 - - O 0,0
21.10.2018 02:00:00 13,2 11,7 18 10 - - O 0,0
21.10.2018 01:00:00 13,5 11,9 18 10 - - O 0,2
21.10.2018 00:00:00 13,6 13,0 5 3 - - ONO 0,4
20.10.2018 23:00:00 13,7 13,1 9 5 - - SSE 0,4
20.10.2018 22:00:00 13,6 13,0 8 4 - - S 0,2
20.10.2018 21:00:00 14,0 13,0 15 8 - - S 0,4
20.10.2018 20:00:00 14,8 13,5 9 5 - - OSO 0,0
20.10.2018 19:00:00 14,8 13,3 21 11 - - SO 0,0
20.10.2018 18:00:00 14,3 12,9 16 9 - - SSO 0,0
20.10.2018 17:00:00 15,5 13,2 16 9 - - O 0,0
20.10.2018 16:00:00 16,0 12,9 16 9 - - SSO 0,0
20.10.2018 15:00:00 16,2 13,1 11 6 - - S 0,0
20.10.2018 14:00:00 16,0 12,9 15 8 - - S 0,0
20.10.2018 13:00:00 16,1 12,6 13 7 - - SSE 0,0
20.10.2018 12:00:00 15,4 11,7 13 7 - - S 0,0
20.10.2018 11:00:00 14,7 10,4 11 6 - - SSE 0,0
20.10.2018 10:00:00 13,1 10,5 15 8 - - S 0,0
20.10.2018 09:00:00 9,8 8,4 4 2 - - E 0,0
20.10.2018 08:00:00 9,2 6,9 9 5 - - SSE 0,0
20.10.2018 07:00:00 9,4 6,2 16 9 - - SE 0,0
20.10.2018 06:00:00 7,3 5,2 5 3 - - S 0,0
20.10.2018 05:00:00 6,4 4,4 5 3 - - S 0,0
20.10.2018 04:00:00 5,2 3,5 8 4 - - S 0,0
20.10.2018 03:00:00 6,6 4,2 15 8 - - ESE 0,0
20.10.2018 02:00:00 4,2 3,2 8 4 - - ESE 0,0
20.10.2018 01:00:00 5,5 3,6 4 2 - - SE 0,0
20.10.2018 00:00:00 7,2 4,4 9 5 - - S 0,0
19.10.2018 23:00:00 7,0 5,3 4 2 - - S 0,0
19.10.2018 22:00:00 6,0 4,6 4 2 - - O 0,0
19.10.2018 21:00:00 5,9 4,2 5 3 - - SE 0,0
19.10.2018 20:00:00 6,0 3,8 5 3 - - E 0,0
19.10.2018 19:00:00 6,8 3,4 2 1 - - NO 0,0
19.10.2018 18:00:00 8,4 4,4 11 6 - - ONO 0,0
19.10.2018 17:00:00 9,7 5,1 18 10 - - ONO 0,0
19.10.2018 16:00:00 11,4 5,6 21 11 - - NO 0,0
19.10.2018 15:00:00 10,5 6,8 18 10 - - ONO 0,0
19.10.2018 14:00:00 12,7 6,3 18 10 - - O 0,0
19.10.2018 13:00:00 11,9 8,2 18 10 - - ONO 0,0
19.10.2018 12:00:00 9,5 8,3 11 6 - - OSO 0,2
19.10.2018 11:00:00 10,0 8,1 9 5 - - SSO 0,0
19.10.2018 10:00:00 9,6 5,4 11 6 - - SE 0,0
19.10.2018 09:00:00 9,1 4,7 24 13 - - SSE 0,0
19.10.2018 08:00:00 8,5 3,8 28 15 - - S 0,0
19.10.2018 07:00:00 8,0 3,7 18 10 - - SSE 0,2
19.10.2018 06:00:00 8,1 4,6 15 8 - - SE 0,0
19.10.2018 05:00:00 8,1 4,2 21 11 - - SSE 0,0
19.10.2018 04:00:00 8,4 4,3 21 11 - - SSE 0,0
19.10.2018 03:00:00 8,4 4,2 21 11 - - SSE 0,0
19.10.2018 02:00:00 8,4 4,3 24 13 - - SSE 0,0
19.10.2018 01:00:00 7,6 4,6 21 11 - - SSE 0,0
19.10.2018 00:00:00 7,8 5,1 21 11 - - SE 0,0
18.10.2018 23:00:00 8,0 5,6 21 11 - - SSE 0,0
18.10.2018 22:00:00 7,6 5,2 5 3 - - S 0,0
18.10.2018 21:00:00 7,5 4,7 8 4 - - S 0,0
18.10.2018 20:00:00 8,4 4,9 5 3 - - SSE 0,0
18.10.2018 19:00:00 8,4 5,3 13 7 - - SSE 0,0
18.10.2018 18:00:00 9,4 5,5 13 7 - - SE 0,0
18.10.2018 17:00:00 9,9 5,7 16 9 - - SSE 0,0
18.10.2018 16:00:00 10,4 6,1 13 7 - - S 0,0
18.10.2018 15:00:00 10,8 4,6 13 7 - - SSO 0,0
18.10.2018 14:00:00 9,8 5,6 11 6 - - S 0,0
18.10.2018 13:00:00 10,2 5,4 11 6 - - SO 0,0
18.10.2018 12:00:00 9,7 5,3 11 6 - - SSO 0,0
18.10.2018 11:00:00 8,5 5,5 9 5 - - SSE 0,0
18.10.2018 10:00:00 7,2 5,7 9 5 - - SSO 0,0
18.10.2018 09:00:00 7,6 5,4 11 6 - - OSO 0,0
18.10.2018 08:00:00 7,2 5,2 9 5 - - S 0,0
18.10.2018 07:00:00 7,6 5,1 9 5 - - OSO 0,0
18.10.2018 06:00:00 5,8 4,4 5 3 - - SE 0,0
18.10.2018 05:00:00 4,4 3,2 4 2 - - SSE 0,0
18.10.2018 04:00:00 4,7 3,4 4 2 - - S 0,0
18.10.2018 03:00:00 4,1 2,6 2 1 - - NNO 0,0
18.10.2018 02:00:00 4,3 2,3 8 4 - - SO 0,0
18.10.2018 01:00:00 6,0 3,9 11 6 - - O 0,0
18.10.2018 00:00:00 5,0 3,1 11 6 - - S 0,0
17.10.2018 23:00:00 5,9 4,0 11 6 - - SSE 0,0
17.10.2018 22:00:00 7,0 4,2 5 3 - - SSE 0,0
17.10.2018 21:00:00 6,4 4,0 9 5 - - E 0,0
17.10.2018 20:00:00 7,3 3,1 16 9 - - O 0,0
17.10.2018 19:00:00 5,5 3,2 16 9 - - O 0,0
17.10.2018 18:00:00 6,4 3,5 11 6 - - O 0,0
17.10.2018 17:00:00 8,7 5,0 18 10 - - O 0,0
17.10.2018 16:00:00 10,3 4,2 22 12 - - O 0,0
17.10.2018 15:00:00 10,0 7,4 16 9 - - ONO 0,6
17.10.2018 14:00:00 10,2 4,3 22 12 - - OSO 0,0
17.10.2018 13:00:00 10,1 5,5 24 13 - - O 0,0
17.10.2018 12:00:00 9,3 5,4 21 11 - - OSO 0,0
17.10.2018 11:00:00 9,9 5,1 16 9 - - OSO 0,0
17.10.2018 10:00:00 8,6 5,2 11 6 - - OSO 0,0
17.10.2018 09:00:00 6,9 4,1 5 3 - - S 0,0
17.10.2018 08:00:00 6,7 4,5 8 4 - - ONO 0,0
17.10.2018 07:00:00 5,2 3,6 13 7 - - SSO 0,0
17.10.2018 06:00:00 7,1 4,9 4 2 - - SSO 0,0
17.10.2018 05:00:00 6,7 4,3 8 4 - - S 0,0
17.10.2018 04:00:00 8,7 5,7 13 7 - - OSO 0,0
17.10.2018 03:00:00 8,5 7,0 11 6 - - ONO 0,0
17.10.2018 02:00:00 6,2 5,3 4 2 - - SSE 0,0
17.10.2018 01:00:00 6,4 5,6 8 4 - - E 0,0
17.10.2018 00:00:00 8,5 6,5 2 1 - - SSO 0,0
16.10.2018 23:00:00 10,0 7,8 2 1 - - S 0,0
16.10.2018 22:00:00 10,7 8,1 8 4 - - SSE 0,0
16.10.2018 21:00:00 11,3 7,6 5 3 - - OSO 0,0
16.10.2018 20:00:00 11,7 7,0 13 7 - - SSO 0,0
16.10.2018 19:00:00 11,4 6,5 15 8 - - S 0,0
16.10.2018 18:00:00 12,6 6,8 18 10 - - SSO 0,0
16.10.2018 17:00:00 13,2 6,6 24 13 - - SSO 0,0
16.10.2018 16:00:00 14,6 7,1 24 13 - - SSO 0,0
16.10.2018 15:00:00 13,1 8,1 24 13 50 27 S 0,0
16.10.2018 14:00:00 13,5 6,2 35 19 52 28 S 0,0
16.10.2018 13:00:00 12,0 5,9 34 18 63 34 SSE 0,0
16.10.2018 12:00:00 11,1 6,2 37 20 65 35 SSE 0,0
16.10.2018 11:00:00 10,3 6,2 46 25 68 37 SSE 0,0
16.10.2018 10:00:00 9,5 5,4 31 17 55 30 SE 0,0
16.10.2018 09:00:00 9,3 4,8 42 23 65 35 SSE 0,0
16.10.2018 08:00:00 8,9 4,3 35 19 52 28 S 0,0

tt = Temperatura
td = dewpoint
ff = velocità del vento
fx = gusts
dd = direzione del vento
rr = precipitazioni

Stazioni seguenti

WeatherPro
AMSI
MeteoEarth